Preview of NWS' New Version of Forecast
This preview is not operational and should not be used for support decisions.

Regional Weather Roundup (RWR)

Issued by Gray - Portland, ME (GYX)

                            
000
ASUS41 KGYX 180705
RWRGYX
WEATHER ROUNDUP FOR MAINE AND NEW HAMPSHIRE
NATIONAL WEATHER SERVICE GRAY ME
300 AM EDT SUN AUG 18 2019

MEZ002-005-006-010-012-015-018-020-021-024-026-027-029-180800-
MAINE
  
CITY           SKY/WX    TMP DP  RH WIND       PRES   REMARKS
PORTLAND       CLOUDY    67  65  93 NE3       30.00F                  
SANFORD        CLOUDY    67  67 100 CALM      30.00F                  
BAR HARBOR     FOG       61  61 100 CALM      30.02S VSB 1/2          
WISCASSET      FOG       65  64  97 CALM      30.01F VSB 1/4          
ROCKLAND       FOG       62  62 100 CALM      30.01S VSB 1/2          
FRYEBURG       CLOUDY    66  64  93 CALM      30.01S                  
LEWISTONAUBURN LGT RAIN  65  65 100 CALM      30.00F FOG              
AUGUSTA        LGT RAIN  64  64 100 S5        30.01F VSB 1/4          
WATERVILLE     LGT RAIN  64  64 100 CALM      29.99S FOG              
BANGOR         RAIN      64  63  96 SW7       30.01F FOG              
GREENVILLE       N/A     61  61 100 SE3       30.01F                  
MILLINOCKET    LGT RAIN  64  62  93 CALM      30.03F                  
HOULTON        LGT RAIN  64  61  90 S5        30.01S                  
PRESQUE ISLE   LGT RAIN  64  62  93 S6        30.02R                  
FRENCHVILLE    LGT RAIN  62  61  96 S3        30.00F                  
CARIBOU        LGT RAIN  65  62  90 S3        30.00S                  
$$

NHZ002-005-008-009-011-012-014-180800-
NEW HAMPSHIRE
  
CITY           SKY/WX    TMP DP  RH WIND       PRES   REMARKS
PORTSMOUTH     MOCLDY    66  66  99 CALM      29.98F                  
ROCHESTER      CLOUDY    67  65  93 CALM      29.99F FOG              
NASHUA         MOCLDY    66  66 100 CALM      30.00F                  
MANCHESTER     MOCLDY    68  67  96 CALM      29.98F                  
CONCORD        MOCLDY    66  65  96 CALM      30.00F                  
LACONIA        CLOUDY    66  66 100 S3        30.01F                  
PLYMOUTH       MOCLDY    64  63  96 CALM      30.01S                  
BERLIN         CLOUDY    63  61  93 CALM      30.01F FOG              
WHITEFIELD     CLOUDY    65  63  93 CALM      30.02R                  
JAFFREY        CLOUDY    66  64  93 S5        30.04S FOG              
KEENE          CLOUDY    65  65 100 CALM      30.02F FOG              
LEBANON        CLOUDY    67  63  87 CALM      30.01S                  
MT WASHINGTON  FOG       50  50 100 W33         N/A  VSB 1/8          
$$

VTZ005-007-008-180800-
VERMONT
  
CITY           SKY/WX    TMP DP  RH WIND       PRES   REMARKS
ST JOHNSBURY     N/A     64  64 100 MISG      29.99S                  
MONTPELIER     MOCLDY    65  63  93 S6        30.05S                  
BURLINGTON     FAIR      67  63  87 S7        29.98R                  
$$

MAZ007-012-024-CTZ003-RIZ002-NYZ038-NYZ072-180800-
SOUTHERN NEW ENGLAND AND NY
  
CITY           SKY/WX    TMP DP  RH WIND       PRES   REMARKS
BOSTON         CLOUDY    70  66  87 CALM      29.99F                  
WORCESTER      MOCLDY    67  67 100 CALM      30.03S FOG              
NANTUCKET      FOG       68  67  96 CALM      29.99S VSB 1/4          
PROVIDENCE     FOG       71  71 100 CALM      30.00S VSB 1            
HARTFORD       MOCLDY    67  66  97 CALM      29.99F                  
ALBANY         FOG       67  65  93 S5        30.00F VSB 1            
NEW YORK CITY  MOCLDY    76  73  91 E5        29.98S                  
$$

ANZ081-ANZ082-ANZ150-NHZ014-MEZ023>029-180800-
COASTAL MARINE OBSERVATIONS
  
STATION/POSITION TIME  TEMP    WIND        PRES    WAVE
                       AIR SEA DIR/SP/G            HT/PER
                 (UTC) (F)     (DEG/KT/KT) (MB)    (FT/S)
MATINICUS ROCK   0650   61                 1015.4S
ISLE OF SHOALS   0600   66     220/  8/  8 1015.6R
JEFFREYS LEDGE   0638      68                N/A     3/ 7
CASHES LEDGE BUO 0550   65 65  130/  6/  8 1016.0    3/ 7
GEORGES BANK BUO 0640   71 70  110/  4/  6 1016.3F
$$

.............KEY..............
   WCI - WIND CHILL
   TC  - TEMPERATURE IN CELSIUS
   VSB - VISIBILITY IN MILES
   HX  - HEAT INDEX
   FAIR- INDICATES FEW OR NO CLOUDS BELOW 12,000 FT, WITH NO 
         SIGNIFICANT WEATHER AND/OR OBSTRUCTIONS TO VISIBILITY.